Simultaneous Nadir Overpasses (SNOs) Predictions

Prediction of SNOs between METOP-A and NOAA-19 Satellite Orbit:

Table of predicted SNOs for the next 14.0 days since TLE Epoch: 12/16/2017
Index Date (METOP-A) Time (METOP-A) Lat,Lon (METOP-A) SZA (METOP-A ) Date (NOAA-19) Time (NOAA-19) Lat,Lon (NOAA-19) SZA (NOAA-19 ) Distance(km) Time Diff (sec)
1 12/19/2017 19:21:44 -78.24, 77.73 78.28 12/19/2017 19:20:37 -78.27, 74.49 78.33 73.57 67
2 12/19/2017 20:12:31 77.95,-116.47 101.39 12/19/2017 20:11:32 77.94,-116.34 101.39 3.00 59
3 12/19/2017 21:03:13 -77.94, 50.82 78.62 12/19/2017 21:02:30 -77.96, 50.83 78.60 2.57 43
4 12/19/2017 21:53:53 77.93,-141.91 101.37 12/19/2017 21:53:33 77.93,-141.76 101.38 3.38 20
5 12/19/2017 22:44:34 -77.92, 25.38 78.64 12/19/2017 22:44:30 -77.95, 25.41 78.61 3.31 4
6 12/19/2017 23:35:13 77.95,-167.14 101.39 12/19/2017 23:35:33 77.92,-167.19 101.37 3.48 20
7 12/20/2017 00:25:55 -77.94, 0.14 78.62 12/20/2017 00:26:31 -77.93, -0.02 78.63 3.70 36
8 12/20/2017 01:16:35 77.93, 167.42 101.37 12/20/2017 01:17:34 77.90, 167.38 101.36 2.67 59
9 12/20/2017 02:07:17 -77.92, -25.30 78.64 12/20/2017 02:08:32 -77.92, -25.44 78.64 3.26 75




NCC Satellite Simultaneous Nadir Overpasses (SNOs) Prediction Service
